Weather History for Bellingham, WA

Change the Weather History Date:

Wednesday, June 5, 2013

  Actual Average Record
Temperature  
Mean Temperature 63 °F 57 °F  
Max Temperature 71 °F 65 °F 84 °F (1958)
Min Temperature 54 °F 49 °F 38 °F (1988)
Degree Days  
Heating Degree Days 2 8  
Month to date heating degree days 26 40  
Since 1 June heating degree days 26 40  
Cooling Degree Days 0 0  
Month to date cooling degree days 0 0  
Year to date cooling degree days 0 0  
Since 1 June cooling degree days 0 0  
Growing Degree Days 12 (Base 50)    
Moisture  
Dew Point 53 °F    
Average Humidity 72    
Maximum Humidity 93    
Minimum Humidity 51    
Precipitation  
Precipitation 0.00 in 0.07 in 0.42 in (2000)
Month to date precipitation T 0.37  
Year to date precipitation 13.24 16.45  
Sea Level Pressure  
Sea Level Pressure 30.08 in    
Wind  
Wind Speed 5 mph (South)    
Max Wind Speed 13 mph    
Max Gust Speed 18 mph    
Visibility 10 miles    
Events      
T = Trace of Precipitation, MM = Missing Value Source: NWS Daily Summary

Daily Weather History Graph

Daily Weather History Graph

Search for Another Location

Airport:

Trip Planner

Search our weather history database for the weather conditions in past years. The results will help you decide how hot, cold, wet, or windy it might be!

Date:

Astronomy

Jun. 05, 2013 Rise Set
Actual Time 5:08 AM PDT 9:09 PM PDT
Civil Twilight 4:27 AM PDT 9:50 PM PDT
Nautical Twilight 3:29 AM PDT 10:48 PM PDT
Astronomical Twilight 1:50 AM PDT 12:30 AM PDT
Moon 3:29 AM PDT (6/5) 6:30 PM PDT (6/5)
Length of Visible Light 17h 23m
Length of Day
16h 00m
Waning Crescent, 7% of the Moon is Illuminated
Jun 5
Waning Crescent
Jun 8
New
Jun 16
First Quarter
Jun 23
Full
Jun 29
Last Quarter

Hourly Weather History & Observations

Time (PDT) Temp. Dew Point Humidity Pressure Visibility Wind Dir Wind Speed Gust Speed Precip Events Conditions
12:53 AM 57.9 °F 51.1 °F 78% 30.06 in 10.0 mi South 5.8 mph - N/A   Clear
1:53 AM 57.0 °F 48.9 °F 74% 30.05 in 10.0 mi South 3.5 mph - N/A   Clear
2:53 AM 55.9 °F 48.9 °F 77% 30.04 in 10.0 mi SSW 3.5 mph - N/A   Clear
3:53 AM 57.0 °F 50.0 °F 77% 30.05 in 10.0 mi South 4.6 mph - N/A   Clear
4:53 AM 57.9 °F 51.1 °F 78% 30.05 in 10.0 mi South 5.8 mph - N/A   Clear
5:53 AM 57.0 °F 52.0 °F 83% 30.05 in 10.0 mi South 8.1 mph - N/A   Mostly Cloudy
6:53 AM 57.0 °F 52.0 °F 83% 30.07 in 10.0 mi South 6.9 mph - N/A   Mostly Cloudy
7:53 AM 57.9 °F 53.1 °F 84% 30.08 in 10.0 mi South 10.4 mph 17.3 mph N/A   Overcast
8:53 AM 59.0 °F 53.1 °F 81% 30.10 in 10.0 mi South 8.1 mph - N/A   Overcast
9:53 AM 60.1 °F 54.0 °F 80% 30.10 in 10.0 mi South 6.9 mph 16.1 mph N/A   Overcast
10:53 AM 62.1 °F 55.0 °F 78% 30.11 in 10.0 mi South 8.1 mph - N/A   Scattered Clouds
11:53 AM 64.0 °F 55.0 °F 73% 30.12 in 10.0 mi South 10.4 mph - N/A   Partly Cloudy
12:53 PM 66.9 °F 52.0 °F 59% 30.12 in 10.0 mi South 8.1 mph - N/A   Scattered Clouds
1:53 PM 69.1 °F 53.1 °F 57% 30.12 in 10.0 mi South 8.1 mph - N/A   Clear
2:53 PM 69.1 °F 54.0 °F 58% 30.11 in 10.0 mi Variable 4.6 mph - N/A   Clear
3:53 PM 70.0 °F 52.0 °F 53% 30.10 in 10.0 mi Variable 4.6 mph - N/A   Clear
4:53 PM 69.1 °F 50.0 °F 51% 30.09 in 10.0 mi West 5.8 mph - N/A   Clear
5:53 PM 69.1 °F 55.0 °F 61% 30.09 in 10.0 mi Variable 4.6 mph - N/A   Clear
6:53 PM 69.1 °F 55.9 °F 63% 30.07 in 10.0 mi Calm Calm - N/A   Clear
7:53 PM 66.0 °F 55.9 °F 70% 30.07 in 10.0 mi Calm Calm - N/A   Clear
8:53 PM 62.1 °F 57.0 °F 84% 30.07 in 10.0 mi Calm Calm - N/A   Clear
9:53 PM 59.0 °F 55.9 °F 90% 30.08 in 10.0 mi Calm Calm - N/A   Clear
10:53 PM 57.9 °F 55.0 °F 90% 30.07 in 10.0 mi Calm Calm - N/A   Clear
11:53 PM 55.9 °F 54.0 °F 93% 30.07 in 10.0 mi Calm Calm - N/A   Clear